World > North America > United States > Washington   City of Seattle, WA

Seattle, Washington Regional Weather

Lat: 47.61N, Lon: 122.33W
Wx Zone: WAZ558Web Search

Helpful Tip: Type the letters wx in the search engine next time you need to find us.

Feedback
Seattle Weather Map
UTC Time: 1/22/2021, 15:21
Your Time:

Seattle, WA Regional Weather

Expires:202101221600;;315770
ASUS46 KSEW 221520
RWRWA 

WASHINGTON REGIONAL WEATHER ROUNDUP
NATIONAL WEATHER SERVICE SEATTLE WA
700 AM PST FRI JAN 22 2021

NOTE:"FAIR" INDICATES FEW OR NO CLOUDS BELOW 12,000 FEET WITH NO 
SIGNIFICANT WEATHER AND/OR OBSTRUCTIONS TO VISIBILITY.


WAZ507-509-555>559-221600-
SEATTLE, TACOMA, EVERETT, AND VICINITY
  
CITY           SKY/WX    TMP DP  RH WIND       PRES   REMARKS
EVERETT        CLOUDY    38  31  76 N7        30.03R                  
BOEING FIELD   CLOUDY    42  29  59 N6        30.04R                  
RENTON         CLOUDY    42  33  70 VRB5      30.03S                  
SEATAC AIRPORT CLOUDY    41  30  65 N14       30.01S                  
JBLM-MCCHORD   NOT AVBL                                               
PUYALLUP       CLOUDY    39  37  93 CALM      30.00S                  
BREMERTON      CLOUDY    39  31  72 NE10      30.02S                  
JBLM-FT LEWIS  NOT AVBL                                               
TACOMA NARROWS CLOUDY    40  29  64 N10       30.01F                  
$$
 

SKY/WX - Weather  TMP - Temperature  DP - Dew Point  RH - Relative Humidity
WIND - Wind Direction/Speed PRES - Barometric Pressure VSB - Visibility
WCI - Wind Chill Index E13G22 Wind - East Wind 13 mph/Gusts of 22 mph